EW6920 Weather Reports


time (UTC)temp
F
wind
direction
speed
knots
gust
knots
rain 1hr
in
rain 24hr
in
rain mn
in
humidity
%
barometer
mb
20260503200042 65 321 8.7 15.6 0.00 0.00 0.00 37 1000.8
20260503194549 65 315 8.7 17.4 0.00 0.00 0.00 37 1000.9
20260503193049 64 267 7.8 17.4 0.00 0.00 0.00 40 1000.9
20260503191544 65 272 9.6 20.0 0.00 0.00 0.00 44 1001.1
20260503190044 65 335 9.6 20.0 0.00 0.00 0.00 40 1001.3
20260503184545 64 313 5.2 20.9 0.00 0.00 0.00 41 1001.3
20260503183048 64 285 10.4 19.1 0.00 0.00 0.00 44 1001.5
20260503181617 64 313 9.6 17.4 0.00 0.00 0.00 43 1001.6
20260503180045 65 290 8.7 15.6 0.00 0.00 0.00 43 1001.6
20260503174550 65 300 7.8 16.5 0.00 0.00 0.00 44 1001.6
20260503173052 65 277 9.6 16.5 0.00 0.00 0.00 45 1001.7
20260503171548 63 242 7.0 13.9 0.00 0.00 0.00 49 1001.6
20260503081550 49 259 2.6 7.0 0.00 0.00 0.00 76 1005.6
20260503071540 49 286 5.2 10.4 0.00 0.00 0.00 69 1005.6
20260503060109 48 248 2.6 5.2 0.00 0.00 0.00 67 1006.2
20260503054547 48 247 3.5 7.0 0.00 0.00 0.00 64 1006.3
20260503053047 48 242 5.2 7.0 0.00 0.00 0.00 62 1006.6
20260503051548 49 223 5.2 13.0 0.00 0.00 0.00 63 1006.6
20260503050045 49 209 5.2 7.8 0.00 0.00 0.00 62 1006.6
20260503044607 49 215 4.3 7.8 0.00 0.00 0.00 64 1006.7
20260503043040 49 221 3.5 6.1 0.00 0.00 0.00 65 1006.8
20260503041553 49 202 3.5 6.1 0.00 0.00 0.00 66 1007.0
20260503040048 48 186 2.6 5.2 0.00 0.00 0.00 69 1007.0
20260503034542 47 209 1.7 3.5 0.00 0.00 0.00 70 1007.2
20260503033041 46 209 1.7 3.5 0.00 0.00 0.00 74 1007.4
20260503031543 45 207 1.7 3.5 0.00 0.00 0.00 67 1007.7
20260503030050 46 205 2.6 6.1 0.00 0.00 0.00 68 1008.0
20260503024551 46 144 0.9 4.3 0.00 0.00 0.00 64 1008.1
20260503023047 45 180 0.0 3.5 0.00 0.00 0.00 60 1008.3
20260503021547 46 0 0.0 0.9 0.00 0.00 0.00 58 1008.6
20260503020046 47 0 0.0 0.0 0.00 0.00 0.00 58 1008.5
20260503014553 49 0 0.0 0.0 0.00 0.00 0.00 58 1008.6
20260503013048 50 0 0.0 3.5 0.00 0.00 0.00 56 1008.5
20260503011545 52 218 1.7 3.5 0.00 0.00 0.00 57 1008.7
20260503010042 52 264 3.5 7.8 0.00 0.00 0.00 54 1008.8
20260503004547 53 250 4.3 8.7 0.00 0.00 0.00 49 1008.8
20260503003050 53 256 5.2 10.4 0.00 0.00 0.00 52 1008.9
20260503001600 54 265 6.1 12.2 0.00 0.00 0.00 47 1008.9
20260503000106 54 261 4.3 9.6 0.00 0.00 0.00 47 1008.9
20260502234559 54 198 5.2 9.6 0.00 0.00 0.00 48 1008.9
20260502233047 55 237 3.5 8.7 0.00 0.00 0.00 46 1009.0
20260502231545 55 224 6.1 9.6 0.00 0.00 0.00 44 1008.9
20260502230045 55 0 0.0 5.2 0.00 0.00 0.00 38 1009.1
20260502224543 55 269 2.6 10.4 0.00 0.00 0.00 46 1009.3
20260502223047 56 319 5.2 9.6 0.00 0.00 0.00 38 1009.5
20260502221547 56 302 5.2 11.3 0.00 0.00 0.00 39 1009.5
20260502220050 56 269 7.0 12.2 0.00 0.00 0.00 42 1009.6
20260502214606 57 296 7.0 13.0 0.00 0.00 0.00 39 1009.7
20260502213103 58 215 4.3 10.4 0.00 0.00 0.00 32 1009.9
20260502211540 58 306 3.5 6.1 0.00 0.00 0.00 29 1010.0
20260502210048 57 0 0.9 9.6 0.00 0.00 0.00 30 1010.1
20260502204546 57 315 4.3 7.8 0.00 0.00 0.00 34 1010.2
20260502203108 56 281 4.3 8.7 0.00 0.00 0.00 37 1010.6
20260502201544 56 0 1.7 9.6 0.00 0.00 0.00 29 1010.7